[[{"header":{"parameterUnit":"m.s-1","parameterCategory":1,"la1":30.2991,"la2":30.254,"lo1":-89.0895,"lo2":-89.0444,"dy":0.0017,"dx":0.0017,"nx":28,"ny":28,"refTime":"2024-05-26T09:00:00:Z","depth":0,"parameterNumber":2,"parameterNumberName":"U-component_of_WINDS"},"data":[0,0,0,0,0,0,0,0,0,0,0,0,0,0,0,0,0,0,0,0,0,0,0,0,0,0,0,0,0,0,0,0,0,0,0,0,0,0,0,0,0,0,0,0,0,0,0,0,0,0,0,0,0,0,0,0,0,0,-0.9614,-0.9615,0,-0.9657,-0.9657,-0.9658,-0.9675,-0.9675,-0.9675,-0.9675,-0.9717,-0.9718,-0.972,0,0,0,0,0,0,0,0,0,0,0,0,0,-0.9548,-0.9549,-0.9614,-0.9615,-0.9615,-0.9657,-0.9657,-0.9658,-0.9675,-0.9675,-0.9675,-0.9674,-0.9717,-0.9718,-0.972,0,0,0,0,0,0,0,0,0,0,0,0,0,-0.9582,-0.955,-0.9614,-0.9629,-0.9631,-0.9657,-0.9657,-0.9658,-0.9675,-0.9675,-0.9675,-0.9674,-0.9716,-0.9718,-0.972,-0.9734,0,0,-0.9726,-0.9726,0,0,0,0,0,0,0,0,-0.958,-0.9585,-0.9626,-0.9628,-0.963,-0.966,-0.965,-0.9684,-0.9675,-0.9658,-0.9675,-0.9674,-0.9698,-0.9702,-0.971,-0.9736,-0.9738,-0.9726,-0.9727,-0.9728,-0.9728,0,0,0,0,0,0,0,-0.9578,-0.9583,-0.9631,-0.9627,-0.9629,-0.9633,-0.9638,-0.9656,-0.9678,-0.9659,-0.9661,-0.9666,-0.9699,-0.9708,-0.9711,-0.9739,-0.9726,-0.9727,-0.9728,-0.9729,-0.978,-0.978,0,0,0,0,0,0,-0.9573,-0.9581,-0.963,-0.9632,-0.9604,-0.9635,-0.964,-0.9651,-0.9678,-0.9682,-0.9666,-0.9666,-0.9705,-0.9709,-0.9713,-0.9732,-0.9728,-0.9729,-0.973,-0.9779,-0.978,-0.978,0,0,0,0,0,0,-0.9572,-0.9577,-0.9628,-0.9607,-0.9614,-0.9636,-0.9648,-0.9652,-0.966,-0.9683,-0.9687,-0.9671,-0.9705,-0.971,-0.9729,-0.9733,-0.973,-0.9732,-0.9779,-0.978,-0.978,-0.977,0,0,0,0,0,0,-0.957,-0.9577,-0.9582,-0.9607,-0.9615,-0.9644,-0.9648,-0.9653,-0.9664,-0.9665,-0.9689,-0.9693,-0.9705,-0.9726,-0.9731,-0.9736,-0.9733,-0.9779,-0.9779,-0.978,-0.977,-0.9769,-0.9769,0,0,0,0,0,-0.9567,-0.9577,-0.9583,-0.9588,-0.9622,-0.9644,-0.9648,-0.9663,-0.9664,-0.967,-0.9685,-0.9692,-0.9732,-0.9728,-0.9733,-0.9739,-0.9779,-0.9779,-0.978,-0.977,-0.9769,-0.9769,0,0,0,0,0,0,-0.9552,-0.9581,-0.9587,-0.9605,-0.9622,-0.9647,-0.9655,-0.9662,-0.9679,-0.9679,-0.9697,-0.9702,-0.972,-0.9731,-0.9726,-0.9755,-0.9756,-0.9758,-0.9746,-0.9747,-0.9746,-0.9743,-0.9735,0,0,0,0,0,-0.9551,-0.9566,-0.9591,-0.9605,-0.9613,-0.9632,-0.9642,-0.9652,-0.967,-0.9677,-0.9693,-0.971,-0.9727,-0.9737,-0.9754,-0.9771,-0.9777,-0.9778,-0.9778,-0.9778,-0.9779,-0.979,-0.979,-0.9782,-0.9782,-0.9782,0,0,-0.9549,-0.9567,-0.9575,-0.9602,-0.9616,-0.9632,-0.9638,-0.9654,-0.9665,-0.9679,-0.9699,-0.9711,-0.9731,-0.975,-0.9758,-0.976,-0.9783,-0.9778,-0.9778,-0.9779,-0.979,-0.9791,-0.9792,-0.9782,-0.9782,-0.9782,0,0,-0.9553,-0.9568,-0.9581,-0.9595,-0.9617,-0.963,-0.9633,-0.9657,-0.9666,-0.9685,-0.9696,-0.971,-0.9738,-0.9753,-0.9763,-0.9773,-0.9781,-0.9778,-0.9778,-0.9788,-0.9789,-0.9789,-0.9793,-0.9794,-0.9779,-0.9779,-0.9779,0,-0.9547,-0.9571,-0.9587,-0.9602,-0.9614,-0.9628,-0.9642,-0.9655,-0.9681,-0.9688,-0.969,-0.9726,-0.974,-0.9762,-0.9765,-0.9773,-0.9778,-0.9775,-0.9787,-0.9788,-0.9789,-0.9793,-0.9794,-0.9779,-0.9779,-0.9779,-0.9779,0,-0.9563,-0.958,-0.9588,-0.9613,-0.9626,-0.964,-0.9658,-0.9669,-0.9678,-0.9691,-0.9711,-0.9729,-0.975,-0.9756,-0.9765,-0.978,-0.978,-0.9784,-0.9786,-0.9789,-0.9793,-0.9795,-0.9778,-0.9778,-0.9779,-0.9779,0,0,-0.9558,-0.9593,-0.9595,-0.9607,-0.9632,-0.9645,-0.9661,-0.9681,-0.969,-0.9708,-0.9721,-0.9745,-0.9749,-0.9761,-0.9772,-0.9781,-0.9788,-0.9784,-0.9785,-0.9784,-0.9806,-0.9803,-0.9804,-0.9793,-0.9794,-0.9794,-0.9805,0,-0.9566,-0.9594,-0.9609,-0.9631,-0.9647,-0.966,-0.9674,-0.9691,-0.9704,-0.9719,-0.9732,-0.9749,-0.9753,-0.9761,-0.977,-0.9785,-0.9793,-0.9785,-0.9806,-0.9807,-0.9801,-0.9806,-0.9803,-0.9812,-0.9806,-0.9806,-0.9807,0,-0.9578,-0.9596,-0.9619,-0.9643,-0.965,-0.9662,-0.9683,-0.9697,-0.9716,-0.9725,-0.9739,-0.975,-0.9767,-0.9767,-0.9791,-0.9785,-0.9795,-0.9803,-0.9804,-0.9807,-0.9807,-0.9809,-0.9815,-0.9817,-0.9809,-0.9809,-0.9809,0,-0.9572,-0.9602,-0.962,-0.963,-0.9658,-0.9666,-0.9678,-0.9698,-0.9709,-0.9727,-0.9735,-0.9754,-0.9765,-0.978,-0.9796,-0.9794,-0.9818,-0.982,-0.9825,-0.9825,-0.983,-0.9829,-0.9837,-0.9836,-0.9836,-0.9836,-0.9836,0,-0.9579,-0.9593,-0.9618,-0.9629,-0.9645,-0.9663,-0.9678,-0.9692,-0.9709,-0.9723,-0.9736,-0.9749,-0.9769,-0.9784,-0.9797,-0.9814,-0.9819,-0.9827,-0.983,-0.9825,-0.9825,-0.9832,-0.9832,-0.9836,-0.9836,-0.9836,-0.9836,0,-0.9575,-0.9593,-0.9614,-0.9639,-0.9646,-0.9656,-0.9678,-0.969,-0.9703,-0.9721,-0.9726,-0.9747,-0.9766,-0.9783,-0.9808,-0.9816,-0.9835,-0.9838,-0.9828,-0.983,-0.9835,-0.9834,-0.9848,-0.9851,-0.9847,-0.9847,-0.9847,0,-0.9579,-0.959,-0.9616,-0.9627,-0.9639,-0.9655,-0.9668,-0.9685,-0.9697,-0.9721,-0.973,-0.9749,-0.9766,-0.9796,-0.9813,-0.9833,-0.9837,-0.9841,-0.984,-0.9836,-0.9838,-0.9837,-0.9838,-0.9841,-0.984,-0.984,-0.984,0,-0.9582,-0.9591,-0.9608,-0.9628,-0.9642,-0.9659,-0.9676,-0.9684,-0.9705,-0.9717,-0.9737,-0.975,-0.9776,-0.9796,-0.9817,-0.983,-0.9839,-0.9841,-0.9843,-0.9839,-0.9832,-0.9836,-0.9828,-0.984,-0.984,-0.984,-0.984,-0.984,-0.9582,-0.9593,-0.9614,-0.9632,-0.9647,-0.9663,-0.9675,-0.9691,-0.9707,-0.973,-0.9739,-0.9759,-0.9779,-0.9809,-0.9822,-0.9837,-0.9839,-0.9843,-0.9844,-0.9844,-0.9844,-0.983,-0.9841,-0.9841,-0.9841,-0.9841,-0.9842,0,-0.9587,-0.9601,-0.9618,-0.9642,-0.9657,-0.9664,-0.9684,-0.9696,-0.9713,-0.9731,-0.9748,-0.977,-0.979,-0.9809,-0.9829,-0.9839,-0.9843,-0.9843,-0.9843,-0.9846,-0.9841,-0.9837,-0.9839,-0.9839,-0.9839,-0.9839,-0.9839,-0.9839,-0.9591,-0.961,-0.9621,-0.9647,-0.9661,-0.9681,-0.9692,-0.9706,-0.9721,-0.9746,-0.9762,-0.9775,-0.9793,-0.9815,-0.9833,-0.9839,-0.9846,-0.9845,-0.9851,-0.9846,-0.9846,-0.9846,-0.9842,-0.9846,-0.9846,-0.9855,-0.9855,-0.9855]},{"header":{"parameterUnit":"m.s-1","parameterCategory":1,"la1":30.2991,"la2":30.254,"lo1":-89.0895,"lo2":-89.0444,"dy":0.0017,"dx":0.0017,"nx":28,"ny":28,"refTime":"2024-05-26T09:00:00:Z","depth":0,"parameterNumber":3,"parameterNumberName":"V-component_of_WINDS"},"data":[0,0,0,0,0,0,0,0,0,0,0,0,0,0,0,0,0,0,0,0,0,0,0,0,0,0,0,0,0,0,0,0,0,0,0,0,0,0,0,0,0,0,0,0,0,0,0,0,0,0,0,0,0,0,0,0,0,0,4.4574,4.4574,0,4.465,4.4651,4.4652,4.4624,4.4622,4.4621,4.4619,4.4698,4.4702,4.4705,0,0,0,0,0,0,0,0,0,0,0,0,0,4.4404,4.4407,4.4573,4.4574,4.4575,4.465,4.4651,4.4652,4.4624,4.4622,4.462,4.4618,4.4697,4.4701,4.4706,0,0,0,0,0,0,0,0,0,0,0,0,0,4.4479,4.4408,4.4573,4.457,4.4571,4.465,4.4651,4.4652,4.4625,4.4622,4.462,4.4617,4.4695,4.4701,4.4706,4.4792,0,0,4.4723,4.4726,0,0,0,0,0,0,0,0,4.4475,4.4485,4.457,4.4571,4.4572,4.4625,4.462,4.4699,4.4625,4.4604,4.4619,4.4616,4.4676,4.4683,4.4703,4.4796,4.48,4.4724,4.4727,4.4729,4.4731,0,0,0,0,0,0,0,4.447,4.4482,4.4604,4.4571,4.4572,4.4566,4.4574,4.4635,4.4654,4.4606,4.4604,4.4614,4.4676,4.4698,4.4704,4.4801,4.4724,4.4728,4.4732,4.4734,4.4971,4.4974,0,0,0,0,0,0,4.4464,4.4478,4.4601,4.4606,4.4516,4.4571,4.458,4.461,4.4653,4.4657,4.4616,4.4612,4.4689,4.4698,4.4707,4.4813,4.4729,4.4735,4.4738,4.4968,4.4972,4.4975,0,0,0,0,0,0,4.446,4.4475,4.4598,4.4541,4.4557,4.4577,4.4611,4.4613,4.4635,4.466,4.4663,4.4635,4.4688,4.4699,4.4772,4.4815,4.4737,4.4742,4.4965,4.4969,4.4973,4.5024,0,0,0,0,0,0,4.4456,4.4474,4.4507,4.4542,4.456,4.4662,4.4614,4.4617,4.4645,4.4641,4.4679,4.4683,4.4686,4.4764,4.4778,4.4821,4.4747,4.4961,4.4967,4.4972,4.5018,4.5029,4.5039,0,0,0,0,0,4.445,4.4517,4.4509,4.4524,4.4601,4.4664,4.4674,4.4677,4.4648,4.4682,4.4698,4.4682,4.4808,4.4771,4.4787,4.4833,4.4958,4.4965,4.4971,4.5014,4.5027,4.5038,0,0,0,0,0,0,4.4486,4.4522,4.4513,4.4594,4.4626,4.4659,4.4701,4.4691,4.4732,4.4726,4.4728,4.4737,4.4812,4.4829,4.4788,4.492,4.4879,4.4889,4.4906,4.4919,4.4929,4.4924,4.4751,0,0,0,0,0,4.4503,4.4552,4.458,4.4649,4.4666,4.4681,4.4709,4.4708,4.4742,4.4755,4.4777,4.481,4.4858,4.4889,4.4934,4.502,4.5029,4.506,4.507,4.5078,4.5087,4.5136,4.5151,4.4997,4.4997,4.4996,0,0,4.454,4.4566,4.4596,4.4657,4.4682,4.4733,4.4693,4.4747,4.4785,4.4763,4.4834,4.4851,4.4889,4.4969,4.5006,4.4986,4.5131,4.5086,4.5093,4.5098,4.5144,4.5159,4.5172,4.5001,4.5,4.5,0,0,4.4633,4.4656,4.4717,4.4744,4.4782,4.4792,4.4807,4.4842,4.4853,4.4923,4.4909,4.4954,4.5035,4.5063,4.5088,4.5193,4.518,4.5207,4.5261,4.5309,4.5321,4.5332,4.5371,4.5385,4.5216,4.5216,4.5216,0,4.4674,4.4749,4.475,4.4807,4.4835,4.4818,4.488,4.4906,4.4957,4.4977,4.4954,4.5057,4.5081,4.5169,4.5195,4.5215,4.5233,4.5203,4.5319,4.533,4.534,4.5378,4.5392,4.5219,4.5219,4.5218,4.5218,0,4.4798,4.485,4.4895,4.4946,4.4979,4.5038,4.5049,4.5082,4.5079,4.5092,4.5165,4.5193,4.5244,4.5265,4.5262,4.5353,4.534,4.5318,4.5277,4.5358,4.5393,4.5408,4.5224,4.5223,4.5222,4.5221,0,0,4.4915,4.4967,4.4984,4.5007,4.5049,4.509,4.5149,4.52,4.5229,4.5265,4.5316,4.5385,4.5366,4.5394,4.5394,4.5436,4.552,4.541,4.541,4.5431,4.5625,4.5642,4.5659,4.5511,4.5514,4.5516,4.5622,0,4.5013,4.5117,4.512,4.5215,4.5265,4.525,4.5302,4.5334,4.5347,4.5391,4.5406,4.5456,4.5426,4.5443,4.5484,4.5501,4.5559,4.5493,4.556,4.5562,4.5552,4.5677,4.5695,4.5794,4.5636,4.5638,4.564,0,4.514,4.5182,4.5282,4.5319,4.534,4.5386,4.5433,4.5475,4.5512,4.5519,4.5551,4.5546,4.5607,4.5563,4.5649,4.5604,4.5631,4.5644,4.5648,4.5656,4.5607,4.5689,4.5825,4.584,4.5661,4.5659,4.5658,0,4.5219,4.5299,4.537,4.539,4.5434,4.5468,4.5488,4.5521,4.5552,4.5593,4.5614,4.5661,4.5688,4.5726,4.5734,4.5701,4.582,4.5777,4.5829,4.5829,4.5856,4.5854,4.5999,4.587,4.587,4.587,4.5869,0,4.5328,4.539,4.5406,4.545,4.552,4.5523,4.5593,4.561,4.5641,4.5688,4.5678,4.5723,4.573,4.5777,4.5783,4.5854,4.5866,4.5874,4.5875,4.5876,4.5875,4.5895,4.5889,4.5874,4.5873,4.5872,4.5871,0,4.5428,4.544,4.5517,4.5553,4.5563,4.5614,4.5645,4.5687,4.57,4.576,4.5775,4.5794,4.5849,4.5861,4.5925,4.593,4.6015,4.6008,4.6003,4.6003,4.6055,4.6051,4.622,4.6243,4.6097,4.6098,4.6099,0,4.5497,4.5545,4.5587,4.5618,4.564,4.569,4.5722,4.5728,4.5761,4.5807,4.5845,4.5898,4.5942,4.603,4.6051,4.6101,4.6097,4.6152,4.6104,4.6104,4.61,4.6098,4.6104,4.6162,4.6164,4.6165,4.6166,0,4.5621,4.5625,4.5671,4.572,4.5758,4.5797,4.5834,4.586,4.5871,4.5909,4.5966,4.5999,4.6066,4.612,4.6171,4.6192,4.6182,4.6181,4.6196,4.6198,4.6194,4.6199,4.603,4.6177,4.6176,4.6175,4.6175,4.6174,4.5709,4.5751,4.5788,4.584,4.5869,4.5904,4.5946,4.5965,4.6012,4.6067,4.6067,4.6129,4.6166,4.6232,4.6257,4.6306,4.6289,4.631,4.6316,4.6321,4.6327,4.6185,4.6315,4.6314,4.6314,4.6314,4.6314,0,4.5833,4.5856,4.5904,4.5957,4.5998,4.5985,4.6025,4.6061,4.6116,4.6151,4.6194,4.626,4.6313,4.6338,4.6391,4.6425,4.6422,4.6439,4.6437,4.6443,4.6339,4.6321,4.6441,4.6441,4.6441,4.6441,4.6441,4.6441,4.5903,4.5975,4.5984,4.6071,4.6094,4.6155,4.618,4.6212,4.6241,4.6315,4.6359,4.6375,4.6406,4.6461,4.651,4.6516,4.6537,4.6556,4.656,4.6463,4.645,4.6438,4.6422,4.656,4.656,4.6661,4.6662,4.6663]}]]